Regional Weather Roundup
Issued by NWS

Home | Current Version | Previous Version | Text Only | Print | Product List | Glossary On
Versions: 1 2 3 4 5 6 7 8 9 10 11 12 13 14 15 16 17 18 19 20 21 22 23 24 25 26 27
000
ASUS44 KBMX 111610
RWRAL

ALABAMA REGIONAL WEATHER ROUNDUP
NATIONAL WEATHER SERVICE BIRMINGHAM AL
1000 AM CST MON DEC 11 2017

NOTE: "FAIR" INDICATES FEW OR NO CLOUDS BELOW 12,000 FEET
WITH NO SIGNIFICANT WEATHER AND/OR OBSTRUCTIONS TO VISIBILITY.

THE REMARK "TC" DENOTES TEMPERATURE IN DEGREES CELSIUS.

ALZ001>011-014-016>018-020-111700-
NORTH ALABAMA

CITY           SKY/WX    TMP DP  RH WIND       PRES   REMARKS
MUSCLE SHOALS  SUNNY     48  31  51 CALM      30.16F
HUNTSVILLE     SUNNY     48  33  56 SW6       30.17S
DECATUR        SUNNY     46  32  58 VRB5      30.17F
HALEYVILLE     FAIR      48  32  53 SW3       30.17F
GADSDEN        SUNNY     44  33  65 S5        30.20F
$$

ALZ012-013-022-023-030>036-040>044-111700-
WEST CENTRAL ALABAMA

CITY           SKY/WX    TMP DP  RH WIND       PRES   REMARKS
TUSCALOOSA     SUNNY     45  36  70 SW5       30.22S
DEMOPOLIS        N/A     49  36  59 CALM      30.22F
$$

ALZ015-024>026-033>036-041>044-111700-
CENTRAL ALABAMA

CITY           SKY/WX    TMP DP  RH WIND       PRES   REMARKS
BIRMINGHAM     SUNNY     48  31  51 VRB5      30.20F
MONTGOMERY     SUNNY     51  34  52 W9        30.24F
SHELBY CO ARPT SUNNY     46  36  68 S5        30.20F
MAXWELL AFB    SUNNY     49  36  62 SW6       30.22F
GREENVILLE     NOT AVBL
SELMA          FAIR      50  34  53 VRB5      30.23F
PRATTVILLE     FAIR      46  33  60 W7        30.23F
BESSEMER       FAIR      47  33  58 S5        30.20F
TALLADEGA      FAIR      44  34  66 CALM      30.21F
PELL CITY      SUNNY     46  36  66 S5        30.20F
MARION         FAIR      47  36  66 W3        30.22F
SYLACAUGA      FAIR      45  36  68 W3        30.21F
$$

ALZ019-021-028-029-037-038-045>048-111700-
EAST CENTRAL ALABAMA

CITY           SKY/WX    TMP DP  RH WIND       PRES   REMARKS
ANNISTON       SUNNY     46  33  60 W6        30.20F
ALEXANDER CITY SUNNY     45  34  65 CALM      30.21F
AUBURN         SUNNY     48  34  58 W6        30.22F
$$

ALZ051>064-111700-
SOUTHWEST ALABAMA

CITY           SKY/WX    TMP DP  RH WIND       PRES   REMARKS
MOBILE         MOSUNNY   54  37  52 W8        30.28F
BROOKLEY FIELD SUNNY     56  42  59 SW5       30.29F
EVERGREEN      SUNNY     55  36  48 W6        30.26F
$$

ALZ049-050-065>069-111700-
SOUTHEAST ALABAMA

CITY           SKY/WX    TMP DP  RH WIND       PRES   REMARKS
DOTHAN         SUNNY     54  35  48 W7        30.29F
OZARK          SUNNY     52  37  58 SW8       30.25F
TROY           SUNNY     52  38  58 SW7       30.25F
EUFAULA          N/A     56  37  49 W5        30.23F
$$




USA.gov is the U.S. government's official web portal to all federal, state and local government web resources and services.